NOAA 16 DEB, 41709

Orbit data source: Space-Track

NOAA 16 DEB, 41709 is space debris in SSO originally from a launch on Thu, 21 Sep 2000 UTC launched from the Air Force Western Test Range (AFWTR). Debris objects in space refer to the collection of defunct objects orbiting the Earth. Examples of debris include non-operational satellites, rocket bodies, and fragments generated from explosions, collisions, or faulty payload assembly.

Loading next visibility...
NOAA 16 DEB details
Identifier
41709, 2000-055PP
Orbit
SSO
Last TLE update10 hours ago
Origin
Flag of USNOAA (US)
ManufacturerUnknown
MissionSpacecraft
Bus & MotorUnknown
MassUnknown
Launch date (UTC)
2000-09-21 (24 years ago)
Launch vehicleUnknown
Launch site
Air Force Western Test Range (AFWTR)
Object type
Payload
Rocket body
Debris
Shape & HBRUnknown
Radar Cross SectionSmall (<0.1 m²)

Expand to show TLE details & history

TLE from 10 hours ago
0 NOAA 16 DEB
1 41709U 00055PP  24336.92699494  .00046153  00000-0  11401-1 0  9998
2 41709  98.9571 139.6366 0022464 323.1715  36.7934 14.51672444451949
Epoch: 2024-12-01T22:14Z
Definitive object data (Epoch: 2024-12-01T22:14:52.362Z)
Latitude-0.00006°
Longitude94.66024°
Altitude710.382 km
Speed7.507 km/s
True Right ascension09h 18m 32s
True Declination0° 00' 00"
Sunlit
Object was in daylight at TLE epoch
Visualization TLE readout
Latitude71.27779°
Longitude-57.32378°
Altitude745.332 km
Speed7.482 km/s
Apparent Right ascension19h 50m 11s
Apparent Declination23° 42' 26"
Sunlit
Object is in daylight
Visualization observer readout
Local Sidereal Time06:26:00
Azimuth339.005° N
Elevation-23.418°
Doppler factor1
Orbital elements
Apogee altitude733.259 km
Perigee altitude701.381 km
Semi-major axis7,095.457 km
Eccentricity0.0022464
Inclination98.9571°
RAAN139.6366°
Arg. of periapsis323.1715°
True anomaly36.94792°
Mean anomaly36.7934°
Eccentric anomaly36.87063°
Mean motion3.63139 °/min
BSTAR0.011401
Orbital period99.14 mins
Loading maneuver chart data...
Loading historical data...
Loading historical data...
Loading historical data...
Loading historical data...
Loading historical data...
Loading historical data...
Loading historical data...

NOAA 16 DEB Visibility forecast

Observer location: undefined°, undefined

Span
Click to sort rows by Start time (UTC) header in descending order
Start Az.
Max El. time (UTC)
Max El. Az.
Max El.
End time (UTC)
End Az.
6 mins2024-12-02 09:58:44.393Z110.562° ESE2024-12-02 10:01:44.393Z67.162° ENE20.885°2024-12-02 10:04:44.393Z21.9° NNE
7 mins2024-12-02 11:36:44.393Z203.026° SW2024-12-02 11:39:44.393Z265.201° W31.928°2024-12-02 11:43:44.393Z328.087° NNW
8 mins2024-12-02 23:38:44.393Z27.953° NE2024-12-02 23:42:44.393Z119.957° SE38.403°2024-12-02 23:46:44.393Z177.455° S
4 mins2024-12-03 01:18:44.393Z314.589° NW2024-12-03 01:19:44.393Z299.735° NW16.737°2024-12-03 01:22:44.393Z259.745° W
|